Date,TemperatureHighF,TemperatureAvgF,TemperatureLowF,DewpointHighF,DewpointAvgF,DewpointLowF,HumidityHigh,HumidityAvg,HumidityLow,PressureMaxIn,PressureMinIn,WindSpeedMaxMPH,WindSpeedAvgMPH,GustSpeedMaxMPH,PrecipitationSumIn
2013-1-8,45.7,41.0,33.6,27.8,26.5,25.8,79,57,46,30.29,30.26,4,2,5,0.00
2013-1-9,57.7,49.9,32.7,48.5,44.3,32.2,99,82,62,30.37,30.30,11,3,11,0.00
2013-1-10,55.6,50.9,42.8,52.6,49.1,42.5,99,93,84,30.45,30.37,6,2,6,0.00
2013-1-11,54.5,48.2,40.3,52.7,47.5,-11.2,99,97,61,30.32,30.11,10,2,10,0.31
2013-1-12,70.9,61.9,52.0,60.9,56.3,51.7,99,83,58,30.18,30.12,7,2,7,0.01
2013-1-13,62.2,56.0,53.4,57.2,54.7,53.1,99,96,76,30.13,30.06,7,2,7,0.00
2013-1-14,56.5,55.2,53.1,56.2,54.9,52.8,99,99,99,30.13,30.06,4,1,4,1.15
2013-1-15,46.2,43.0,39.2,46.0,42.3,-8.5,99,98,10,30.13,30.00,5,1,5,1.43
2013-1-16,60.3,51.6,43.9,53.2,47.8,-0.6,99,89,10,30.00,29.93,17,3,17,0.15
2013-1-17,47.5,42.7,41.9,47.2,42.5,41.6,99,99,99,29.98,29.87,9,4,9,0.37
2013-1-18,36.1,26.2,21.2,27.8,23.7,21.0,99,91,63,30.36,30.09,0,0,0,0.00
2013-1-19,53.4,32.4,17.1,33.0,25.9,16.8,99,79,44,30.32,30.13,5,0,5,0.00
2013-1-20,48.9,40.5,30.2,29.2,24.8,17.8,91,54,39,30.06,30.00,17,6,17,0.02
2013-1-21,46.6,38.4,27.0,28.3,21.6,18.0,92,53,35,30.01,29.88,21,6,21,0.00
2013-1-22,25.9,17.8,11.5,3.4,-3.4,-7.1,54,40,23,30.03,29.85,21,9,21,0.02
2013-1-23,35.2,24.4,15.4,23.1,9.2,-4.7,78,52,39,30.12,29.92,20,8,20,0.13
2013-1-24,36.1,30.8,23.2,26.1,20.2,10.8,70,64,56,30.03,29.83,34,23,34,1.96
2013-1-25,36.1,28.3,15.1,35.9,27.2,12.9,99,96,89,30.06,29.91,27,7,27,1.96
2013-1-26,34.2,30.5,25.3,32.1,25.0,22.4,99,80,68,30.12,29.94,14,6,14,0.00
2013-1-27,34.0,26.0,17.8,28.0,23.5,17.5,99,91,72,30.34,30.22,5,2,5,0.04
2013-1-28,63.9,46.8,28.4,42.9,36.3,27.7,99,71,41,30.29,30.17,8,2,8,0.18
2013-1-29,69.4,56.6,35.1,53.3,45.2,-2.2,99,70,10,30.19,30.05,11,2,11,0.01
2013-1-30,57.2,53.6,40.1,56.9,53.4,39.8,99,99,99,30.03,29.52,15,6,15,4.65
2013-1-31,39.9,27.0,23.2,39.1,18.5,15.6,97,70,60,29.85,29.54,31,9,31,0.00
2013-2-1,34.3,18.2,12.2,27.8,6.2,1.9,97,59,46,30.10,29.81,24,10,24,0.11
2013-2-2,35.1,22.3,9.5,27.4,13.6,5.8,99,71,42,30.15,29.90,6,2,6,0.00
2013-2-3,35.6,27.9,21.6,27.2,22.2,17.7,92,79,65,29.89,29.77,25,11,25,0.34
2013-2-4,45.7,35.6,18.0,23.1,19.5,14.3,89,54,37,30.00,29.85,21,4,21,0.06
2013-2-5,47.1,39.6,29.8,34.4,29.2,21.5,91,67,45,29.92,29.86,14,4,14,0.01
2013-2-6,52.2,45.2,32.4,31.2,16.4,1.4,77,36,14,30.14,29.93,17,5,17,0.01
2013-2-7,39.7,36.6,30.9,34.4,30.0,20.4,99,78,56,30.19,30.03,6,2,6,0.17
2013-2-8,46.2,36.6,27.3,42.3,33.7,23.1,99,90,52,29.99,29.85,21,6,21,0.28
2013-2-9,51.1,33.1,24.6,23.2,15.7,6.2,86,55,17,30.25,29.95,24,8,24,0.13
2013-2-10,45.5,36.7,31.6,35.3,20.5,14.2,99,55,35,30.29,30.10,14,4,14,0.12
2013-2-11,56.1,48.6,20.7,55.4,39.6,9.8,99,74,39,30.08,29.95,19,5,19,0.12
2013-2-12,55.4,39.6,33.3,22.5,18.8,12.7,59,45,22,30.03,29.91,26,12,26,0.00
2013-2-13,43.5,37.3,31.8,43.3,37.0,30.9,99,99,99,29.77,29.61,23,4,23,0.31
2013-2-14,51.8,39.7,24.6,29.3,24.7,18.8,97,59,35,29.95,29.77,11,2,11,0.00
2013-2-15,55.8,41.4,25.2,36.0,29.7,22.6,99,69,30,30.01,29.91,11,4,11,0.06
2013-2-16,30.7,25.9,20.5,27.3,19.7,9.9,99,77,59,29.91,29.73,27,10,27,0.00
2013-2-17,27.7,17.9,12.0,8.1,5.2,1.1,73,58,39,30.00,29.80,27,14,27,0.05
2013-2-18,46.9,36.5,16.7,19.6,15.3,6.4,67,44,28,30.20,30.08,6,3,6,0.01
2013-2-19,47.5,37.0,30.0,38.7,23.9,18.2,99,61,42,30.07,29.81,30,9,30,0.12
2013-2-20,41.5,31.8,22.5,10.5,4.0,-1.2,56,32,17,30.01,29.87,22,10,30,0.05
2013-2-21,53.4,41.1,21.7,8.8,3.5,-0.2,56,24,12,30.09,29.98,14,6,14,0.00
2013-2-22,35.1,33.0,28.9,34.8,32.8,28.7,99,99,99,30.14,26.99,9,1,9,0.15
2013-2-23,51.4,43.7,32.0,49.0,42.8,31.8,99,97,87,30.00,29.82,6,1,6,0.24
2013-2-24,41.9,41.1,39.9,41.3,40.1,37.6,99,96,86,29.83,29.81,17,7,17,0.00
2013-2-25,42.8,32.5,26.4,23.7,21.2,18.4,80,63,45,30.05,29.96,8,3,8,0.00
2013-2-28,25.3,24.9,24.6,24.1,23.4,22.8,98,94,90,29.92,29.90,15,12,15,0.00
2013-3-1,34.0,28.5,24.6,26.7,24.8,23.1,99,87,65,29.97,29.90,12,6,12,0.05
2013-3-2,34.3,26.6,18.3,28.2,22.5,14.6,99,85,66,29.95,29.90,16,6,16,0.06
2013-3-3,27.5,20.6,16.0,15.1,13.2,10.4,89,74,55,29.99,29.91,23,12,23,0.04
2013-3-4,49.3,35.9,18.0,20.0,10.9,-1.6,78,39,14,30.13,29.98,21,7,21,0.01
2013-3-5,41.4,37.0,29.5,40.4,35.7,21.9,99,95,63,30.12,29.82,4,1,4,0.58
2013-3-6,28.4,24.7,19.9,26.6,21.4,18.5,99,88,72,30.07,29.69,0,0,0,0.02
2013-3-7,33.6,29.3,22.3,27.0,24.4,22.0,99,82,72,30.23,30.11,21,7,21,0.00
2013-3-8,43.7,35.5,21.7,24.0,22.1,19.0,90,59,43,30.33,30.24,22,10,22,0.00
2013-3-20,39.2,33.9,28.2,27.7,15.3,5.4,98,52,24,29.91,29.89,11,8,11,1.33
2013-3-21,30.7,24.2,15.3,19.8,7.9,4.6,83,50,38,29.87,29.78,22,10,22,0.04
2013-3-22,48.0,32.8,14.2,13.7,10.5,-29.7,77,43,10,30.03,29.93,30,4,30,0.00
2013-3-23,50.9,39.4,31.8,36.5,31.2,22.6,91,73,48,30.06,29.97,6,2,6,0.00
2013-3-24,38.5,34.1,32.7,35.7,33.4,32.2,99,97,78,29.98,29.63,4,3,4,0.50
2013-3-25,31.6,26.4,23.2,26.5,23.6,21.1,99,89,71,29.85,29.61,0,0,0,0.13
2013-3-26,35.6,29.1,22.5,26.1,23.4,20.4,99,80,65,30.02,29.82,27,6,27,0.15
2013-3-27,38.3,29.9,23.0,23.3,19.2,16.9,94,65,48,30.24,30.11,26,9,26,0.01
2013-3-28,46.8,38.4,24.8,23.4,19.0,15.0,70,47,33,30.26,30.18,20,8,20,0.01
2013-3-29,52.9,37.5,23.2,30.2,20.7,13.6,86,55,21,30.32,30.25,16,4,16,0.00
2013-3-30,60.4,44.0,29.5,39.1,31.7,26.8,99,68,30,30.26,30.15,8,2,8,0.00
2013-3-31,55.8,50.5,41.2,50.4,45.3,36.6,99,83,67,30.14,29.97,14,3,14,0.00
2013-4-1,57.2,49.5,37.9,45.6,37.6,33.8,99,65,48,30.04,29.94,24,8,24,0.04
2013-4-2,52.3,45.1,29.8,29.2,17.9,11.7,75,36,22,30.19,30.06,16,6,16,0.00
2013-4-3,58.5,40.7,28.0,19.5,12.6,7.4,48,34,16,30.31,30.17,12,5,12,0.00
2013-4-4,37.4,32.3,30.0,33.6,27.2,-17.8,99,84,35,30.30,30.06,12,0,12,0.00
2013-4-5,53.2,43.3,33.1,43.8,36.6,29.9,99,80,45,30.07,29.97,20,8,20,0.00
2013-4-6,64.0,48.4,29.1,35.1,30.8,28.6,99,56,27,30.29,30.14,8,3,8,0.00
2013-4-7,68.2,50.8,35.8,40.8,38.5,30.9,94,64,34,30.29,30.20,10,2,10,0.00
2013-4-8,74.8,59.2,40.5,48.9,44.6,38.5,99,62,38,30.26,30.19,9,3,11,0.00
2013-4-9,80.6,71.3,40.8,53.7,48.0,40.6,99,48,31,30.34,30.24,10,3,10,0.00
2013-4-10,85.1,73.4,50.4,55.9,51.7,34.8,99,52,28,30.27,30.15,10,4,10,0.00
2013-4-11,74.7,62.1,50.2,60.0,54.0,49.9,99,78,46,30.14,29.90,10,3,10,0.15
2013-4-12,69.4,62.1,54.5,60.5,47.6,31.8,99,62,33,29.91,29.82,19,7,19,1.10
2013-4-13,67.1,52.8,42.6,37.3,31.2,21.2,72,48,20,30.11,29.94,22,10,22,0.05
2013-4-14,54.9,51.9,49.5,48.9,45.4,40.4,98,80,58,30.15,30.14,4,3,4,0.00
2013-4-15,56.5,52.2,47.1,56.2,52.0,46.9,99,99,98,30.25,30.12,6,2,6,0.40
2013-4-16,76.1,64.5,51.4,62.9,57.9,51.2,99,81,54,30.40,30.31,7,3,7,0.00
2013-4-17,71.2,61.3,55.0,63.0,58.6,54.8,99,92,67,30.39,30.27,11,3,11,0.17
2013-4-18,71.6,60.7,56.1,61.3,57.5,54.2,99,91,61,30.28,30.11,9,3,9,0.02
2013-4-19,59.7,57.2,45.3,59.5,56.9,45.1,99,99,99,30.11,29.90,14,5,14,0.86
2013-4-20,52.9,37.7,31.1,38.1,29.2,25.3,99,74,38,30.34,29.98,22,9,22,0.06
2013-4-21,60.4,42.7,28.8,34.0,30.0,25.6,99,66,32,30.47,30.33,7,2,7,0.00
2013-4-22,63.0,53.3,35.8,35.7,32.3,27.5,92,47,31,30.45,30.30,8,3,8,0.00
2013-4-23,69.8,49.6,28.4,45.1,37.4,26.1,99,67,37,30.34,30.21,6,2,6,0.00
2013-4-24,71.6,62.0,42.3,58.0,51.5,42.0,99,71,50,30.23,30.12,11,3,11,0.04
2013-4-25,75.2,56.7,34.5,45.4,25.5,4.6,99,37,10,30.34,30.19,19,7,19,0.00
2013-4-26,66.9,61.3,40.5,34.6,31.4,25.4,62,33,24,30.48,30.38,11,5,11,0.00
2013-4-27,59.7,51.0,46.9,49.6,46.3,43.1,99,85,60,30.42,30.34,4,2,4,0.09
2013-4-28,51.4,47.9,44.1,51.2,47.6,43.8,99,99,99,30.32,30.14,6,2,6,0.77
2013-4-29,67.3,60.4,47.5,63.1,55.6,47.2,99,85,65,30.17,30.10,7,2,7,0.02
2013-4-30,70.7,62.5,53.8,61.4,57.3,53.5,99,84,58,30.27,30.19,8,2,8,0.12
2013-5-1,59.2,55.6,49.8,55.9,53.2,49.6,99,92,80,30.40,30.29,9,3,9,0.00
2013-5-2,55.2,50.7,48.0,54.9,50.4,47.8,99,99,99,30.39,30.33,8,2,8,0.15
2013-5-3,59.0,53.5,45.3,56.0,49.0,45.1,99,85,68,30.34,30.23,11,4,11,0.05
2013-5-4,52.3,44.7,39.4,47.2,43.3,37.9,99,95,79,30.22,30.10,11,5,11,0.00
2013-5-5,46.8,44.3,39.9,46.5,44.0,39.7,99,99,99,30.14,29.94,24,6,24,1.76
2013-5-6,60.4,52.9,47.8,58.6,51.5,43.5,99,95,63,30.01,29.91,11,3,11,2.03
2013-5-7,59.7,51.4,39.7,53.2,48.5,39.5,99,90,74,30.04,29.99,10,3,10,0.15
2013-5-8,60.4,54.0,46.2,55.0,51.2,46.0,99,91,72,30.11,30.03,15,4,15,0.02
2013-5-9,76.3,63.7,47.7,57.8,52.7,47.4,99,70,42,30.25,30.13,14,4,14,0.00
2013-5-10,76.6,59.8,45.0,60.7,53.5,44.7,99,83,48,30.25,30.13,8,2,8,0.06
2013-5-11,73.9,60.2,52.3,59.5,56.3,52.1,99,88,70,30.14,30.00,15,3,15,0.25
2013-5-12,57.6,50.8,43.9,51.5,38.5,27.0,99,66,38,30.14,29.99,14,7,14,0.01
2013-5-13,57.4,47.3,36.7,29.6,26.9,21.3,73,47,25,30.24,30.12,16,7,16,0.00
2013-5-14,66.7,56.4,29.1,41.3,34.8,28.9,99,49,32,30.31,30.25,8,2,8,0.00
2013-5-15,81.9,69.3,47.5,54.9,48.8,42.2,90,51,30,30.23,30.16,21,9,21,0.04
2013-5-16,76.8,69.6,59.7,51.8,48.7,43.9,63,48,31,30.22,30.13,17,7,17,0.00
2013-5-17,82.2,65.8,48.2,61.8,57.1,46.3,99,77,42,30.26,29.49,10,2,10,0.14
2013-5-18,60.1,59.0,56.1,59.8,58.8,55.8,99,99,99,30.29,30.22,8,1,8,0.47
2013-5-19,63.7,61.1,59.2,63.4,60.8,58.9,99,99,99,30.26,30.21,5,1,5,0.01
2013-5-20,73.9,66.7,58.1,69.7,63.6,57.8,99,91,68,30.29,30.22,12,4,12,0.15
2013-5-21,81.7,67.2,57.2,72.6,62.9,56.9,99,88,53,30.24,30.15,6,2,6,0.94
2013-5-22,79.3,69.3,55.4,71.2,65.5,55.1,99,89,70,30.20,30.10,9,2,9,0.22
2013-5-23,76.1,67.1,56.5,69.5,58.6,51.6,99,78,46,30.15,30.04,11,3,11,0.18
2013-5-24,59.4,53.5,45.7,54.1,43.9,-10.3,99,72,42,30.23,30.02,26,10,26,0.07
2013-5-25,72.1,58.7,42.4,37.8,34.0,28.5,77,45,22,30.38,30.29,22,8,22,0.00
2013-5-26,70.0,57.0,47.1,47.9,41.2,35.8,99,58,34,30.38,30.30,11,4,11,0.00
2013-5-27,77.5,58.8,42.1,63.0,51.9,41.8,99,81,52,30.38,30.30,6,2,6,0.00
2013-5-28,81.9,72.9,52.5,67.9,61.7,52.2,99,69,51,30.37,30.29,8,2,8,0.00
2013-5-29,93.0,77.7,53.1,75.6,63.0,52.8,99,62,48,30.39,30.32,27,4,27,0.00
2013-5-30,81.3,71.9,55.4,68.1,63.2,55.1,99,76,55,30.42,30.35,5,2,5,0.00
2013-5-31,80.1,73.9,55.4,67.6,62.8,55.1,99,69,53,30.38,30.30,31,3,31,0.19
2013-6-1,80.8,68.7,59.0,68.8,63.4,58.7,99,85,57,30.31,30.21,8,2,8,0.00
2013-6-2,71.2,65.1,61.3,69.6,64.5,61.1,99,98,90,30.23,30.11,8,2,8,0.21
2013-6-3,79.2,72.2,58.6,68.8,61.1,55.3,99,69,48,30.12,30.07,16,4,16,0.01
2013-6-4,71.8,63.8,54.7,67.9,62.2,54.4,99,95,78,30.26,30.16,6,1,6,0.22
2013-6-5,69.8,62.1,57.2,67.1,61.8,56.9,99,99,91,30.28,30.18,5,1,5,0.12
2013-6-6,71.8,65.7,60.3,71.5,65.4,60.0,99,99,99,30.18,30.00,6,1,6,1.23
2013-6-7,72.9,65.2,59.5,69.0,64.2,59.3,99,97,84,30.05,29.90,18,4,18,0.90
2013-6-8,77.5,61.7,55.9,69.8,60.1,55.7,99,95,63,30.19,30.03,8,2,8,0.20
2013-6-9,80.2,64.6,59.2,71.7,63.9,58.9,99,98,68,30.33,30.24,8,2,8,2.40
2013-6-10,75.6,67.6,61.9,75.1,65.8,57.9,99,95,63,30.24,30.08,11,2,11,1.58
2013-6-11,77.7,71.7,59.0,65.0,61.1,58.6,99,70,55,30.20,30.11,17,5,17,0.07
2013-6-12,86.5,78.1,59.4,74.3,69.1,59.1,99,75,58,30.22,30.17,18,4,18,0.00
2013-6-13,86.9,68.8,60.4,67.8,63.5,-10.7,99,86,44,30.15,29.93,26,8,26,0.52
2013-6-14,74.5,64.2,50.7,57.3,53.6,-22.7,99,71,47,30.24,30.01,19,5,19,0.00
2013-6-15,74.7,54.2,46.4,62.5,51.4,46.1,99,92,56,30.31,30.22,5,1,5,0.00
2013-6-16,77.7,66.0,54.1,69.5,61.9,53.9,99,88,60,30.30,30.23,5,1,5,0.00
2013-6-17,79.3,67.1,61.7,72.2,65.6,61.4,99,95,74,30.25,30.16,6,1,6,0.05
2013-6-18,70.9,65.1,59.7,70.6,64.8,59.4,99,99,99,30.17,30.03,11,2,11,0.35
2013-6-19,77.5,65.0,55.9,69.1,62.3,55.7,99,92,71,30.31,30.12,5,1,5,0.01
2013-6-20,79.0,65.3,56.5,70.2,64.1,56.2,99,96,74,30.40,30.30,4,1,4,0.00
2013-6-21,83.3,73.5,59.5,68.8,63.9,59.3,99,74,51,30.43,30.37,5,2,7,0.00
2013-6-22,83.3,65.6,50.2,65.6,57.9,4.2,99,81,10,30.41,30.32,4,1,4,0.09
2013-6-23,85.1,67.8,55.8,73.9,64.7,55.5,99,91,52,30.40,30.32,6,1,6,0.00
2013-6-24,82.8,70.7,57.9,76.1,67.6,3.2,99,91,62,30.40,30.31,10,1,10,0.79
2013-6-25,84.2,74.1,60.4,74.8,69.5,60.2,99,87,63,30.33,30.28,11,2,11,0.14
2013-6-26,84.7,72.4,60.4,75.4,68.5,60.2,99,88,57,30.25,30.14,10,4,10,0.08
2013-6-27,79.7,71.1,60.4,73.3,68.2,60.2,99,91,78,30.16,29.99,13,4,13,0.08
2013-6-28,82.9,75.3,63.7,71.1,66.9,63.4,99,76,53,30.03,29.89,19,6,19,0.06
2013-6-29,81.0,66.9,56.1,68.7,61.6,54.7,99,85,51,29.95,29.86,7,1,7,0.00
2013-6-30,85.5,64.8,54.0,68.6,61.7,53.7,99,91,55,30.05,29.93,7,2,7,1.67
2013-7-1,75.0,66.4,60.8,72.7,65.9,40.3,99,98,90,30.17,30.02,7,2,7,0.87
2013-7-2,74.3,66.9,61.3,72.1,64.8,10.1,99,96,10,30.28,30.16,27,2,27,0.44
2013-7-3,68.9,65.1,59.7,68.5,64.8,8.1,99,99,99,30.38,30.30,11,2,11,2.28
2013-7-4,70.5,66.1,58.3,70.3,65.9,58.0,99,99,99,30.41,30.35,11,2,11,2.55
2013-7-5,79.0,69.9,63.3,77.4,69.6,63.0,99,99,92,30.42,30.36,10,2,10,0.33
2013-7-6,77.5,67.5,64.9,77.2,67.3,64.7,99,99,99,30.40,30.31,10,2,10,0.59
2013-7-7,76.5,68.1,63.3,76.2,67.8,63.1,99,99,99,30.36,30.28,6,1,6,1.23
2013-7-8,85.5,73.5,63.0,74.0,67.3,62.7,99,83,55,30.38,30.32,7,2,7,0.01
2013-7-9,86.7,71.3,61.5,75.4,66.6,-24.3,99,87,54,30.38,30.32,10,2,10,0.00
2013-7-10,86.2,70.5,60.6,79.7,68.7,9.0,99,95,10,30.75,29.16,13,2,13,0.42
2013-7-11,77.2,68.4,62.8,75.7,67.6,62.5,99,97,88,30.75,29.18,9,2,9,0.05
2013-7-12,79.3,65.3,59.2,74.6,64.6,58.9,99,97,77,30.37,28.81,9,2,9,0.89
2013-7-13,74.3,63.2,60.1,72.2,62.9,59.8,99,99,88,30.32,29.65,11,2,11,0.12
2013-7-14,72.7,66.5,63.9,72.4,66.2,63.6,99,99,99,30.45,29.58,12,3,12,1.49
2013-7-15,82.0,71.2,65.3,76.9,69.1,65.0,99,93,71,30.93,29.59,7,2,7,0.00
2013-7-16,88.7,67.9,46.6,73.0,65.1,46.3,99,91,56,30.93,30.01,7,2,8,0.00
2013-7-17,89.6,75.3,64.2,76.5,70.5,63.9,99,86,63,30.84,29.57,6,2,6,0.34
2013-7-18,86.2,67.3,60.8,82.0,65.9,60.5,99,96,73,30.90,30.25,4,1,4,0.00
2013-7-19,84.4,75.2,60.8,81.0,72.0,60.5,99,90,73,35.38,29.07,6,1,6,0.01
2013-7-20,79.7,69.9,64.2,75.7,69.0,63.9,99,97,86,30.49,29.45,5,1,5,0.00
2013-7-21,77.9,66.9,63.9,74.9,66.0,63.6,99,97,85,30.57,29.53,5,2,5,0.00
2013-7-22,79.3,73.1,62.1,74.9,71.3,61.8,99,94,84,30.56,29.52,5,1,5,0.01
2013-7-23,78.1,74.6,64.8,69.9,67.4,64.5,99,79,68,30.50,29.68,11,4,11,0.01
2013-7-24,82.9,75.0,62.4,71.8,67.8,62.1,99,80,64,30.50,29.33,8,3,8,0.01
2013-7-25,81.3,65.4,58.8,71.4,64.1,58.5,99,96,72,30.65,30.07,2,0,2,0.00
2013-7-26,73.2,68.7,66.9,72.0,68.2,66.6,99,98,96,30.38,30.13,3,1,3,0.00
2013-7-27,77.4,71.2,63.1,76.2,70.6,62.9,99,98,90,35.35,29.25,7,1,7,2.20
2013-7-28,77.9,70.8,59.5,72.4,66.1,59.3,99,86,64,35.37,0.00,8,3,8,0.26
2013-7-29,80.2,66.6,54.0,66.0,59.4,53.7,99,80,50,0.00,40.00,9,4,9,0.00
2013-7-30,74.1,71.1,63.3,68.7,66.4,59.4,99,85,77,30.75,0.00,4,2,4,0.00
2013-7-31,77.0,64.3,59.5,67.9,64.0,59.3,99,99,99,30.67,0.00,25,1,25,0.31
2013-8-1,81.3,72.5,62.8,72.8,68.1,62.5,99,87,62,0.00,40.00,8,4,9,0.11
2013-8-2,81.7,74.7,60.1,72.2,68.1,59.8,99,81,60,0.00,40.00,8,3,8,0.00
2013-8-3,81.7,77.7,73.4,71.2,67.9,61.6,78,72,56,0.00,40.00,5,3,5,0.00
2013-8-4,78.1,72.2,64.8,68.6,63.1,59.0,99,74,52,0.00,40.00,14,6,14,0.13
2013-8-5,80.4,73.9,62.8,71.1,65.9,18.8,99,77,60,35.40,29.66,5,2,5,0.25
2013-8-6,79.0,71.8,63.1,75.7,69.6,62.9,99,93,82,30.64,29.73,2,1,2,0.00
2013-8-7,68.2,65.7,64.0,67.9,65.4,63.8,99,99,99,35.36,35.36,5,1,5,0.52
2013-8-8,77.0,67.3,64.0,76.7,67.1,63.8,99,99,99,0.00,0.00,4,1,4,0.04
2013-8-9,85.3,71.9,64.6,78.3,70.5,64.3,99,96,76,0.00,0.00,4,1,4,0.02
2013-8-10,85.8,70.1,63.1,78.0,68.7,62.9,99,96,71,0.00,40.00,6,2,6,0.59
2013-8-11,83.8,70.6,61.5,77.5,68.1,61.2,99,93,70,0.00,40.00,9,2,9,0.09
2013-8-12,73.8,68.1,65.5,73.5,67.8,65.2,99,99,99,35.42,35.42,9,3,9,0.01
2013-8-13,80.8,71.5,63.7,77.9,70.8,63.4,99,98,86,35.40,30.06,20,3,20,0.04
2013-8-14,74.8,65.5,54.9,63.8,58.9,54.6,99,81,54,32.08,27.68,17,4,17,0.17
2013-8-15,77.7,60.6,46.9,70.4,58.7,46.7,99,94,78,31.88,29.59,4,2,4,0.00
2013-8-16,75.4,64.0,48.2,64.9,59.5,47.9,99,86,65,32.14,29.46,28,2,28,0.00
2013-8-17,66.4,58.6,52.2,63.7,58.0,51.9,99,98,89,31.70,29.82,2,1,2,0.40
2013-8-18,74.1,63.0,58.8,73.2,62.7,58.5,99,99,97,31.64,30.43,5,1,5,0.31
2013-8-19,72.1,66.7,60.6,71.7,66.5,60.3,99,99,99,32.35,31.02,4,1,4,0.09
2013-8-20,82.8,73.2,56.5,76.1,70.4,56.2,99,91,70,32.20,30.94,6,2,6,0.00
2013-8-21,73.8,66.0,60.8,73.3,65.7,60.5,99,99,97,32.01,31.12,5,1,5,0.00
2013-8-22,82.2,69.9,62.2,74.9,66.8,62.0,99,91,66,31.98,31.50,8,3,8,0.05
2013-8-23,79.9,71.2,58.6,74.9,68.8,58.4,99,92,80,32.40,30.07,11,3,11,0.02
2013-8-24,80.1,64.8,52.2,66.1,59.3,51.9,99,85,47,30.22,28.78,5,1,5,0.00
2013-8-25,78.4,61.0,49.1,68.2,57.2,48.8,99,89,57,29.68,27.28,7,1,7,0.00
2013-8-26,82.4,72.4,48.2,68.3,62.6,47.9,99,73,54,30.32,27.40,13,3,13,0.00
2013-8-27,78.4,68.1,60.3,72.6,66.1,60.0,99,94,75,30.40,28.35,14,5,14,0.01
2013-8-28,83.5,76.0,64.8,77.0,72.5,64.5,99,89,71,30.49,29.19,11,4,11,0.00
2013-8-29,86.2,72.0,66.9,75.1,69.3,66.7,99,92,60,35.00,34.89,17,3,17,0.01
2013-8-30,68.4,68.4,68.4,68.1,68.1,68.1,99,99,99,35.29,35.28,2,2,4,0.00
2013-8-31,83.1,69.2,62.1,77.7,68.4,61.8,99,98,76,30.49,29.36,5,1,5,0.27
2013-9-1,83.8,66.8,59.7,80.2,66.2,59.4,99,98,88,30.24,29.17,8,1,8,0.12
2013-9-2,63.1,62.6,62.1,62.9,62.3,61.8,99,99,99,29.57,29.53,0,0,2,0.00
2013-9-3,80.4,73.4,61.2,72.0,66.5,60.9,99,81,62,30.24,28.54,14,5,14,0.04
2013-9-4,81.9,65.8,55.8,72.8,62.5,55.5,99,90,65,30.38,27.60,7,2,7,0.00
2013-9-5,82.8,72.0,53.4,68.1,61.6,53.1,99,72,47,30.40,28.13,11,4,11,0.00
2013-9-6,79.7,69.1,9.0,73.0,64.7,8.7,99,87,67,30.24,27.72,25,2,25,0.11
2013-9-7,79.7,64.4,51.3,72.6,62.6,51.0,99,95,75,30.38,27.85,6,1,6,0.00
2013-9-8,80.1,67.2,55.4,72.1,64.6,55.1,99,92,65,30.00,28.43,8,2,8,0.00
2013-9-9,82.0,72.6,55.8,76.9,70.6,55.5,99,94,78,30.02,28.40,6,1,6,0.00
2013-9-10,84.9,69.3,57.7,76.6,66.5,57.5,99,92,71,29.88,28.51,6,1,6,0.00
2013-9-11,89.2,73.8,59.7,76.2,68.8,59.4,99,86,53,30.34,28.34,9,2,9,0.00
2013-9-12,81.7,73.0,63.3,77.7,70.7,63.0,99,93,73,30.35,28.89,13,4,13,0.19
2013-9-13,73.0,66.6,51.4,65.9,58.5,51.2,99,77,53,29.75,27.55,21,7,21,0.34
2013-9-14,73.8,63.8,43.3,61.0,55.0,43.1,99,75,58,29.36,27.06,8,3,8,0.00
2013-9-15,73.6,58.7,45.7,65.9,57.2,45.4,99,95,76,29.46,27.94,5,1,5,0.00
2013-9-16,72.9,61.6,49.1,70.3,61.0,48.8,99,98,86,29.06,27.68,10,2,10,0.00
2013-9-17,64.9,56.8,52.3,59.6,55.7,52.1,99,96,77,29.12,27.73,5,1,5,0.00
2013-9-18,66.7,55.6,50.2,62.3,55.2,49.9,99,99,82,28.57,27.33,4,1,4,0.00
2013-9-19,73.2,64.9,56.8,71.2,64.4,56.6,99,98,87,29.68,28.12,7,2,7,0.00
2013-9-20,80.1,71.8,56.8,72.9,67.4,56.6,99,87,66,30.53,28.51,11,3,11,0.00
2013-9-21,63.9,60.1,58.1,63.6,56.0,-99.9,99,99,99,30.21,28.70,10,3,10,0.71
2013-9-22,72.0,55.6,49.6,69.8,53.2,49.4,99,93,63,29.14,27.02,13,5,13,0.00
2013-9-23,71.8,59.8,41.9,63.7,56.9,41.6,99,91,72,30.33,26.99,7,2,7,0.01
2013-9-24,74.7,58.7,45.1,67.7,57.5,44.9,99,96,76,30.53,27.83,4,1,4,0.00
2013-9-25,59.0,56.8,54.3,58.7,56.5,54.0,99,99,99,29.56,28.61,4,1,4,0.33
2013-9-26,72.3,58.3,50.4,67.1,56.4,50.1,99,94,67,30.30,27.68,3,0,3,0.00
2013-9-27,77.4,64.0,41.7,68.6,59.7,41.5,99,87,63,30.42,27.53,7,1,7,0.00
2013-9-28,67.6,58.9,45.9,63.5,57.5,45.6,99,95,83,29.54,28.12,6,1,6,0.00
2013-9-29,70.2,59.1,44.1,63.5,57.4,43.8,99,95,69,29.93,27.55,4,1,4,0.00
2013-9-30,72.5,57.2,48.9,64.4,56.3,48.7,99,97,74,30.16,27.99,4,0,4,0.00
2013-10-1,76.5,64.9,45.0,66.8,58.7,44.7,99,82,54,30.39,27.42,10,2,10,0.00
2013-10-2,77.9,64.6,47.8,68.6,58.9,47.6,99,84,57,0.00,0.00,10,2,10,0.00
2013-10-3,80.8,71.2,50.4,70.9,65.1,50.1,99,82,62,30.42,27.79,8,2,8,0.00
2013-10-4,81.9,61.8,49.8,72.1,59.2,49.6,99,93,57,30.36,27.75,6,2,6,0.00
2013-10-5,83.8,63.3,50.5,71.4,60.5,50.3,99,92,61,30.42,27.87,4,1,4,0.00
2013-10-6,74.3,64.5,55.0,71.8,63.6,54.8,99,97,83,30.18,28.75,8,2,8,0.00
2013-10-7,77.5,55.9,51.1,62.1,55.6,11.4,99,99,94,29.74,28.53,16,6,16,1.43
2013-10-8,70.9,57.8,40.6,55.5,50.0,40.4,99,78,50,30.06,27.03,10,3,10,0.19
2013-10-9,75.7,59.5,34.2,52.9,46.7,33.9,99,67,28,30.17,26.60,7,2,7,0.00
2013-10-10,69.3,58.5,39.0,54.6,46.5,38.8,99,67,10,29.99,27.02,15,6,15,0.01
2013-10-11,71.2,64.5,51.3,57.3,47.3,40.3,99,57,36,29.73,27.83,24,7,24,0.00
2013-10-12,67.5,58.7,54.1,60.8,56.9,52.2,99,94,74,29.02,27.82,8,3,8,0.00
2013-10-13,69.8,59.2,55.4,69.5,58.9,55.1,99,99,99,29.94,27.87,4,1,4,0.04
2013-10-14,66.9,59.8,53.6,66.4,59.4,53.3,99,99,91,30.13,28.17,9,1,9,0.01
2013-10-15,68.4,58.1,50.9,63.8,56.3,50.6,99,94,80,29.99,28.16,5,1,5,0.08
2013-10-16,70.7,59.8,45.1,63.5,57.3,44.9,99,92,70,30.09,27.68,5,2,5,0.00
2013-10-17,65.3,59.0,53.4,65.0,58.8,53.1,99,99,99,30.12,28.51,6,1,6,0.08
2013-10-18,68.0,53.2,44.6,55.8,49.7,44.3,99,90,49,29.80,27.09,11,4,11,0.00
2013-10-19,53.4,52.9,46.6,53.1,52.5,46.2,99,99,92,28.86,27.66,4,1,4,0.00
2013-10-20,63.5,46.0,35.8,45.4,36.2,22.4,99,77,24,28.36,27.07,11,3,11,0.00
2013-10-21,65.8,53.6,34.9,53.8,47.0,34.6,99,80,46,30.10,26.67,8,2,8,0.00
2013-10-22,64.4,55.5,43.9,52.8,44.4,34.3,99,70,34,30.14,27.74,16,3,16,0.01
2013-10-23,50.9,41.0,31.3,46.0,31.0,24.5,99,69,41,29.79,27.35,23,9,23,0.07
2013-10-24,49.1,38.4,29.3,30.1,26.7,20.1,94,64,34,27.60,27.36,19,6,19,0.00
2013-10-25,39.0,31.8,25.3,33.4,23.8,19.0,99,73,46,0.00,0.00,24,7,24,0.12
2013-10-26,53.6,35.3,18.1,32.1,22.2,12.0,99,67,19,28.63,27.13,7,2,7,0.00
2013-10-27,63.0,49.7,41.9,48.3,33.8,17.4,92,60,17,29.12,27.05,22,6,22,0.01
2013-10-28,58.8,53.7,48.0,55.9,52.0,47.7,99,94,75,29.70,27.65,6,1,6,0.00
2013-10-29,68.4,53.8,41.2,56.2,49.6,40.9,99,88,51,29.42,27.01,6,2,6,0.00
2013-10-30,70.3,63.3,52.0,57.6,52.3,48.6,99,70,47,30.19,27.99,17,4,17,0.05
2013-10-31,59.2,54.8,52.3,58.9,54.6,52.1,99,99,99,29.57,28.31,10,3,10,0.00
2013-11-1,77.7,64.9,53.8,62.0,56.6,46.8,99,78,37,30.79,28.62,9,3,9,0.19
2013-11-2,57.4,48.7,43.3,47.3,33.8,21.6,96,59,30,29.20,27.03,21,7,21,0.00
2013-11-3,50.7,42.2,33.6,37.5,28.8,19.8,99,63,31,28.69,27.04,17,5,17,0.00
2013-11-4,51.3,38.4,30.4,32.8,22.7,5.1,99,63,15,28.80,27.03,5,2,5,0.00
2013-11-5,55.6,40.8,27.7,45.4,30.9,9.4,99,76,19,28.15,27.03,5,1,5,0.01
2013-11-6,59.5,51.1,45.5,55.1,49.9,45.2,99,96,79,29.66,28.09,6,2,6,0.09
2013-11-7,56.8,45.6,33.8,56.6,42.1,26.9,99,88,69,29.31,27.77,19,6,19,0.05
2013-11-8,45.1,34.8,27.1,26.7,13.8,-7.1,77,48,11,28.02,27.05,17,7,17,0.04
2013-11-9,54.3,41.1,26.2,21.9,11.8,-3.9,74,34,10,29.17,27.22,5,1,5,0.00
2013-11-10,59.4,47.0,37.8,27.0,7.0,-9.0,51,22,10,0.00,40.00,17,8,17,0.00
2013-11-11,59.5,48.1,24.6,14.8,-1.2,-12.5,63,15,10,30.09,0.00,9,2,9,0.00
2013-11-12,47.1,27.2,18.9,30.9,12.1,-8.6,86,59,10,28.57,26.58,25,9,25,0.02
2013-11-13,37.4,29.2,17.2,10.2,-2.2,-16.4,73,31,10,28.72,0.00,21,7,21,0.01
2013-11-14,56.5,41.0,17.1,13.4,-3.2,-18.9,84,20,10,29.78,26.61,14,4,14,0.00
2013-11-15,56.1,40.1,26.8,12.3,4.9,-3.1,45,25,10,28.23,27.42,4,1,4,0.00
2013-11-16,54.7,48.5,44.6,54.2,48.3,44.3,99,99,99,29.10,27.71,6,1,6,0.01
2013-11-17,52.0,51.2,49.5,51.7,50.4,42.0,99,97,69,29.38,28.57,7,2,7,0.20
2013-11-18,59.9,49.8,38.1,53.0,30.8,-3.3,99,52,10,30.18,27.08,26,9,26,0.07
2013-11-19,48.2,39.2,30.0,25.3,9.1,-8.3,81,37,10,29.66,27.06,25,4,25,0.04
2013-11-20,46.4,38.9,25.3,25.6,16.3,5.5,94,44,20,29.31,27.08,10,3,10,0.00
2013-11-21,52.2,45.9,31.3,49.9,44.8,28.1,99,96,80,30.01,27.75,8,1,8,0.08
2013-11-22,67.1,54.5,46.4,66.3,54.2,46.1,99,99,92,30.42,28.31,10,2,10,0.07
2013-11-23,51.1,43.3,31.5,50.8,38.3,17.2,99,84,49,28.86,26.61,24,8,24,0.07
2013-11-24,28.6,20.5,14.4,4.9,-21.4,-31.3,54,17,10,29.06,0.00,27,7,27,0.01
2013-11-25,29.3,25.0,14.7,1.1,-23.0,-31.2,34,11,10,29.14,26.86,6,2,6,0.00
2013-11-26,41.5,38.9,25.9,41.1,38.6,21.3,99,99,82,29.24,27.17,8,2,8,2.39
2013-11-27,40.8,22.1,15.4,40.6,19.4,4.5,99,90,61,28.93,26.79,35,9,35,0.08
2013-11-28,48.7,33.0,13.3,6.7,-7.6,-20.3,72,24,10,28.28,0.00,21,4,21,0.01
2013-11-29,50.4,32.1,20.1,17.9,-3.1,-20.1,91,27,10,28.99,27.02,11,3,11,0.00
2013-11-30,42.4,32.7,20.5,18.5,-1.6,-16.7,87,34,10,28.15,26.65,5,2,5,0.00
2013-12-1,53.2,32.9,20.1,31.9,12.9,-6.7,99,57,10,28.96,27.01,10,2,10,0.00
2013-12-2,50.9,42.5,24.4,39.2,24.9,12.2,99,55,21,30.46,27.06,6,1,6,0.00
2013-12-3,56.7,48.7,35.6,48.5,44.2,31.0,99,86,61,30.53,28.11,8,2,8,0.01
2013-12-4,53.1,48.9,45.1,52.8,48.6,44.9,99,99,99,30.45,28.46,3,1,3,0.01
2013-12-5,61.0,55.5,51.1,60.7,55.2,50.8,99,99,99,30.31,28.73,4,1,4,0.25
2013-12-6,61.5,60.2,58.8,61.2,18.9,3.4,99,33,10,30.30,29.62,13,3,13,0.14
2013-12-7,50.7,39.3,36.5,47.0,37.6,18.0,99,95,28,28.07,26.95,17,4,17,0.01
2013-12-8,33.1,29.9,28.2,32.8,29.6,28.0,99,99,99,27.81,27.05,4,0,4,0.12
2013-12-9,52.5,46.0,30.9,52.1,37.7,-7.2,99,85,10,29.46,27.25,11,3,11,0.07
2013-12-10,44.2,33.1,23.2,44.0,25.4,0.1,99,76,38,29.46,26.72,34,6,34,0.26
2013-12-11,46.6,36.3,20.1,6.9,-10.9,-22.3,56,14,10,0.00,40.00,14,3,14,0.00
2013-12-12,32.7,25.1,20.1,6.5,-16.9,-27.5,53,18,10,28.35,0.00,22,6,22,0.00
2013-12-13,22.1,20.6,19.0,-17.4,-26.7,-28.6,17,10,10,27.42,26.58,12,3,12,0.00
2013-12-16,47.3,33.4,23.7,27.1,15.0,-10.7,99,60,10,0.00,40.00,11,5,11,0.02
2013-12-17,53.2,39.7,27.7,31.4,10.0,-8.9,99,40,10,27.94,27.03,20,6,20,0.09
2013-12-18,40.5,29.0,22.1,6.3,-10.2,-22.9,46,21,10,0.00,40.00,24,7,24,0.11
2013-12-19,62.6,38.4,22.6,21.1,1.7,-13.9,82,32,10,27.61,27.01,6,2,6,0.00
2013-12-20,59.7,43.8,31.6,23.1,0.9,-16.9,50,19,10,28.17,27.05,4,1,4,0.00
2013-12-21,56.8,51.8,43.2,55.1,48.2,21.5,99,89,41,28.82,27.49,7,2,7,0.40
2013-12-22,58.3,54.3,51.8,53.3,5.3,-3.2,99,18,10,29.44,28.95,14,3,14,2.23
2013-12-23,54.5,47.1,36.1,47.2,16.9,-7.9,99,49,10,29.31,28.35,24,5,24,0.41
2013-12-24,28.8,22.4,15.1,27.3,10.9,-0.3,99,63,36,0.00,0.00,29,8,29,0.00
2013-12-25,34.2,20.2,10.9,13.3,-8.1,-29.6,99,40,10,28.54,0.00,7,1,7,0.00
2013-12-26,43.5,29.0,17.4,12.5,3.3,-13.6,64,38,10,28.08,26.65,21,4,21,0.00
2013-12-27,48.2,29.6,17.6,23.7,6.2,-18.2,99,52,10,29.75,26.58,11,2,11,0.00
2013-12-28,50.9,33.6,18.9,40.9,13.7,-14.4,99,63,10,28.91,26.60,8,1,8,0.18
2013-12-29,47.8,38.9,18.5,46.0,38.6,18.3,99,99,87,28.98,27.75,31,7,31,0.60
2013-12-30,40.3,34.7,29.1,38.2,34.1,28.9,99,98,85,28.94,27.44,22,7,22,0.00
2013-12-31,34.2,27.7,21.6,28.9,13.9,-15.4,99,65,11,28.10,27.02,21,6,26,0.04
2014-1-1,44.2,31.1,19.2,26.7,3.6,-20.1,99,43,10,29.68,26.69,10,2,10,0.00
2014-1-2,45.1,32.2,13.5,44.9,30.4,13.3,99,94,72,29.79,26.74,21,2,21,0.24